FW8346 Weather Reports


Display with metric or nautical units.
time (UTC)temp
F
wind
direction
speed
MPH
gust
MPH
rain 1hr
in
rain 24hr
in
rain mn
in
humidity
%
barometer
mb
20260505111811 35 344 1.0 4.0 0.00 0.00 0.00 62 1007.4
20260505111308 35 318 0.0 4.0 0.00 0.00 0.00 62 1007.3
20260505110808 34 284 0.0 4.0 0.00 0.00 0.00 63 1007.3
20260505110540 34 326 1.0 4.0 0.00 0.00 0.00 62 1007.2
20260505101302 35 329 3.0 17.0 0.00 0.00 0.00 59 1006.8
20260505100807 36 295 3.0 13.0 0.00 0.00 0.00 58 1006.8
20260505100801 35 328 2.0 15.0 0.00 0.00 0.00 59 1006.6
20260505095801 36 290 4.0 13.0 0.00 0.00 0.00 58 1006.8
20260505095304 36 330 3.0 11.0 0.00 0.00 0.00 59 1006.6
20260505094803 36 4 2.0 9.0 0.00 0.00 0.00 59 1006.8
20260505094303 36 294 2.0 8.0 0.00 0.00 0.00 59 1006.5
20260505093803 36 212 1.0 8.0 0.00 0.00 0.00 59 1006.5
20260505093532 36 297 1.0 10.0 0.00 0.00 0.00 58 1006.4
20260505092803 36 326 1.0 10.0 0.00 0.00 0.00 58 1006.3
20260505092304 36 34 1.0 8.0 0.00 0.00 0.00 59 1006.3
20260505092032 36 300 2.0 8.0 0.00 0.00 0.00 59 1006.2
20260505091301 36 291 1.0 8.0 0.00 0.00 0.00 59 1006.1
20260505090801 36 340 1.0 7.0 0.00 0.00 0.00 59 1006.1
20260505090302 37 311 1.0 10.0 0.00 0.00 0.00 59 1006.0
20260505090033 37 340 1.0 10.0 0.00 0.00 0.00 59 1006.0
20260505085533 37 283 2.0 6.0 0.00 0.00 0.00 60 1006.0
20260505084800 37 322 1.0 6.0 0.00 0.00 0.00 61 1005.9
20260505084300 37 293 1.0 5.0 0.00 0.00 0.00 63 1005.9
20260505083800 37 335 2.0 11.0 0.00 0.00 0.00 63 1005.8
20260505083301 37 122 1.0 11.0 0.00 0.00 0.00 64 1005.7
20260505083028 37 314 0.0 4.0 0.00 0.00 0.00 65 1005.7
20260505082256 37 331 2.0 10.0 0.00 0.00 0.00 65 1005.7
20260505081754 37 302 2.0 12.0 0.00 0.00 0.00 67 1005.7
20260505081254 36 240 1.0 12.0 0.00 0.00 0.00 70 1005.7
20260505080748 36 293 0.0 4.0 0.00 0.00 0.00 73 1005.7
20260505080242 36 229 0.0 3.0 0.00 0.00 0.00 74 1005.7
20260505075736 35 305 0.0 2.0 0.00 0.00 0.00 74 1005.7
20260505075229 35 347 0.0 2.0 0.00 0.00 0.00 74 1005.7
20260505074724 35 266 0.0 2.0 0.00 0.00 0.00 74 1005.6
20260505074450 35 291 0.0 1.0 0.00 0.00 0.00 73 1005.6
20260505073718 36 293 0.0 0.0 0.00 0.00 0.00 73 1005.6
20260505073218 36 271 0.0 0.0 0.00 0.00 0.00 72 1005.6
20260505072718 36 225 0.0 0.0 0.00 0.00 0.00 72 1005.6
20260505072217 37 222 0.0 0.0 0.00 0.00 0.00 70 1005.6
20260505071718 37 222 0.0 1.0 0.00 0.00 0.00 68 1005.6
20260505071218 38 222 0.0 1.0 0.00 0.00 0.00 67 1005.6
20260505070720 38 292 0.0 1.0 0.00 0.00 0.00 66 1005.6
20260505070450 38 251 0.0 3.0 0.00 0.00 0.00 66 1005.5
20260505065717 38 333 0.0 3.0 0.00 0.00 0.00 66 1005.5
20260505065215 38 285 0.0 1.0 0.00 0.00 0.00 66 1005.5
20260505064716 39 269 0.0 2.0 0.00 0.00 0.00 65 1005.6
20260505064216 39 293 0.0 3.0 0.00 0.00 0.00 64 1005.6
20260505063715 39 188 0.0 3.0 0.00 0.00 0.00 62 1005.5
20260505063216 40 327 1.0 10.0 0.00 0.00 0.00 61 1005.5
20260505062715 40 271 2.0 10.0 0.00 0.00 0.00 61 1005.5
20260505062210 40 323 1.0 9.0 0.00 0.00 0.00 62 1005.4
20260505061709 40 262 1.0 4.0 0.00 0.00 0.00 62 1005.4
20260505061207 40 269 2.0 9.0 0.00 0.00 0.00 62 1005.4
20260505060707 40 304 1.0 9.0 0.00 0.00 0.00 63 1005.5
20260505060207 40 349 1.0 6.0 0.00 0.00 0.00 63 1005.4
20260505055940 40 274 1.0 6.0 0.00 0.00 0.00 63 1005.3
20260505055207 40 353 0.0 1.0 0.00 0.00 0.00 63 1005.3
20260505054708 40 262 0.0 4.0 0.00 0.00 0.00 61 1005.2
20260505054208 41 334 1.0 5.0 0.00 0.00 0.00 61 1005.3
20260505053707 41 323 1.0 7.0 0.00 0.00 0.00 60 1005.2
20260505053208 41 281 1.0 7.0 0.00 0.00 0.00 60 1005.1
20260505052940 41 315 1.0 6.0 0.00 0.00 0.00 60 1005.1
20260505052206 41 279 0.0 3.0 0.00 0.00 0.00 60 1005.1
20260505051703 42 321 1.0 5.0 0.00 0.00 0.00 59 1005.1
20260505051202 42 273 2.0 6.0 0.00 0.00 0.00 59 1005.0
20260505050700 42 326 2.0 8.0 0.00 0.00 0.00 59 1005.0
20260505050201 42 276 2.0 8.0 0.00 0.00 0.00 59 1005.0
20260505041614 43 316 0.0 6.0 0.00 0.00 0.00 57 1004.8
20260505041108 44 238 1.0 6.0 0.00 0.00 0.00 57 1004.8
20260505040602 44 328 1.0 6.0 0.00 0.00 0.00 56 1004.8
20260505040055 44 321 2.0 6.0 0.00 0.00 0.00 56 1004.8
20260505035549 44 332 2.0 6.0 0.00 0.00 0.00 55 1004.8
20260505035044 44 252 1.0 10.0 0.00 0.00 0.00 55 1004.8
20260505034541 44 286 2.0 10.0 0.00 0.00 0.00 55 1004.7
20260505034536 44 326 2.0 7.0 0.00 0.00 0.00 54 1004.8
20260505034028 44 325 2.0 7.0 0.00 0.00 0.00 54 1004.7
20260505033026 44 241 1.0 6.0 0.00 0.00 0.00 54 1004.8
20260505032527 44 252 1.0 7.0 0.00 0.00 0.00 54 1004.8
20260505032026 44 289 2.0 7.0 0.00 0.00 0.00 54 1004.7
20260505031523 44 291 1.0 6.0 0.00 0.00 0.00 54 1004.7
20260505031023 44 267 1.0 6.0 0.00 0.00 0.00 54 1004.7
20260505030523 44 336 1.0 6.0 0.00 0.00 0.00 54 1004.7
20260505030023 45 334 1.0 6.0 0.00 0.00 0.00 54 1004.7
20260505025524 45 338 1.0 6.0 0.00 0.00 0.00 53 1004.6
20260505025252 45 345 1.0 6.0 0.00 0.00 0.00 53 1004.7
20260505024520 45 322 2.0 6.0 0.00 0.00 0.00 53 1004.6
20260505024026 45 331 3.0 14.0 0.00 0.00 0.00 52 1004.5
20260505024021 45 338 3.0 10.0 0.00 0.00 0.00 52 1004.6
20260505023021 45 259 3.0 14.0 0.00 0.00 0.00 51 1004.6
20260505022752 45 290 4.0 13.0 0.00 0.00 0.00 52 1004.5
20260505022020 45 281 3.0 13.0 0.00 0.00 0.00 51 1004.4
20260505021521 45 325 2.0 13.0 0.00 0.00 0.00 51 1004.3
20260505021022 45 359 2.0 8.0 0.00 0.00 0.00 51 1004.3
20260505020516 45 314 1.0 8.0 0.00 0.00 0.00 50 1004.2
20260505020010 45 288 1.0 5.0 0.00 0.00 0.00 50 1004.1
20260505015504 45 321 2.0 6.0 0.00 0.00 0.00 49 1004.0
20260505014958 45 326 1.0 6.0 0.00 0.00 0.00 49 1003.9
20260505014451 45 342 1.0 5.0 0.00 0.00 0.00 48 1003.8
20260505013945 46 283 1.0 9.0 0.00 0.00 0.00 48 1003.8
20260505013710 46 326 4.0 12.0 0.00 0.00 0.00 47 1003.8
20260505013206 46 358 5.0 12.0 0.00 0.00 0.00 48 1003.5
20260505012428 46 314 4.0 12.0 0.00 0.00 0.00 47 1003.5
20260505011922 46 260 2.0 11.0 0.00 0.00 0.00 47 1003.4
20260505011416 46 303 1.0 5.0 0.00 0.00 0.00 48 1003.3
20260505010910 46 315 2.0 7.0 0.00 0.00 0.00 48 1003.5
20260505010404 46 335 3.0 9.0 0.00 0.00 0.00 48 1003.4
20260505005857 46 331 3.0 9.0 0.00 0.00 0.00 47 1003.3
20260505005352 46 316 2.0 9.0 0.00 0.00 0.00 47 1003.3
20260505004847 46 339 2.0 9.0 0.00 0.00 0.00 47 1003.3
20260505004347 46 243 1.0 6.0 0.00 0.00 0.00 48 1003.3
20260505003848 46 307 2.0 7.0 0.00 0.00 0.00 48 1003.2
20260505003348 46 334 4.0 10.0 0.00 0.00 0.00 48 1003.3
20260505002848 46 331 3.0 11.0 0.00 0.00 0.00 48 1003.1
20260505002350 46 349 3.0 11.0 0.00 0.00 0.00 49 1003.1
20260505001848 46 323 4.0 11.0 0.00 0.00 0.00 49 1003.2
20260505001345 46 323 5.0 14.0 0.00 0.00 0.00 48 1003.3
20260505000844 47 307 3.0 14.0 0.00 0.00 0.00 49 1003.2
20260505000345 47 240 3.0 13.0 0.00 0.00 0.00 50 1003.2
20260504235845 47 319 5.0 13.0 0.00 0.00 0.00 51 1003.1
20260504235345 46 297 6.0 15.0 0.00 0.00 0.00 51 1003.1
20260504234842 47 347 6.0 16.0 0.00 0.00 0.00 50 1003.2
20260504234344 47 324 5.0 16.0 0.00 0.00 0.00 51 1003.2
20260504234111 47 319 5.0 12.0 0.00 0.00 0.00 50 1003.1
20260504233342 47 322 5.0 14.0 0.00 0.00 0.00 49 1003.1
20260504232837 47 354 7.0 14.0 0.00 0.00 0.00 51 1003.1
20260504232337 47 322 7.0 14.0 0.00 0.00 0.00 50 1003.0
20260504232107 47 339 5.0 17.0 0.00 0.00 0.00 48 1003.0
20260504231336 47 345 5.0 17.0 0.00 0.00 0.00 49 1003.0
20260504230838 47 293 7.0 17.0 0.00 0.00 0.00 49 1002.9
20260504230336 47 220 7.0 22.0 0.00 0.00 0.00 48 1002.8
20260504225836 48 338 7.0 22.0 0.00 0.00 0.00 48 1002.7
20260504225337 48 350 7.0 16.0 0.00 0.00 0.00 49 1002.6
20260504224838 48 304 6.0 16.0 0.00 0.00 0.00 48 1002.6
20260504224332 48 338 5.0 16.0 0.00 0.00 0.00 50 1002.6
20260504223833 48 340 7.0 20.0 0.00 0.00 0.00 49 1002.5
20260504223333 48 323 7.0 20.0 0.00 0.00 0.00 49 1002.4
20260504223104 49 5 7.0 18.0 0.00 0.00 0.00 49 1002.4
20260504222333 49 49 7.0 16.0 0.00 0.00 0.00 48 1002.4
20260504221833 49 317 7.0 18.0 0.00 0.00 0.00 46 1002.3
20260504221334 49 354 8.0 19.0 0.00 0.00 0.00 47 1002.1
20260504220834 50 336 6.0 19.0 0.00 0.00 0.00 46 1002.1
20260504220334 50 296 7.0 19.0 0.00 0.00 0.00 44 1002.1
20260504215830 50 196 9.0 22.0 0.00 0.00 0.00 46 1002.0
20260504215329 51 339 6.0 22.0 0.00 0.00 0.00 46 1001.9
20260504214828 51 273 7.0 19.0 0.00 0.00 0.00 45 1001.8
20260504214329 51 0 7.0 19.0 0.00 0.00 0.00 47 1001.8
20260504213830 51 354 7.0 21.0 0.00 0.00 0.00 47 1001.9
20260504213328 50 305 9.0 21.0 0.00 0.00 0.00 47 1001.8
20260504212833 50 312 10.0 21.0 0.00 0.00 0.00 47 1001.7
20260504212828 50 333 9.0 21.0 0.00 0.00 0.00 49 1001.7
20260504212102 50 302 11.0 30.0 0.00 0.00 0.00 47 1001.7
20260504211326 51 0 7.0 30.0 0.00 0.00 0.00 47 1001.5
20260504210825 51 333 6.0 20.0 0.00 0.00 0.00 47 1001.5
20260504210325 50 281 9.0 22.0 0.00 0.00 0.00 46 1001.5
20260504205825 50 326 11.0 23.0 0.00 0.00 0.00 50 1001.4
20260504205326 51 347 11.0 23.0 0.00 0.00 0.00 51 1001.4
20260504204827 51 339 9.0 21.0 0.00 0.00 0.00 48 1001.2
20260504204557 51 240 6.0 21.0 0.00 0.00 0.00 45 1001.3
20260504203827 52 272 6.0 19.0 0.00 0.00 0.00 46 1001.2
20260504203325 52 264 8.0 20.0 0.00 0.00 0.00 45 1001.0
20260504202825 52 84 8.0 21.0 0.00 0.00 0.00 48 1000.9
20260504202322 52 317 7.0 22.0 0.00 0.00 0.00 49 1000.9
20260504201822 51 308 6.0 22.0 0.00 0.00 0.00 49 1001.0
20260504201323 51 342 6.0 21.0 0.00 0.00 0.00 47 1001.0
20260504200822 51 278 7.0 21.0 0.00 0.00 0.00 50 1000.9
20260504200322 51 340 7.0 20.0 0.00 0.00 0.00 47 1000.9
20260504195823 51 328 8.0 20.0 0.00 0.00 0.00 47 1000.8
20260504195317 51 4 8.0 19.0 0.00 0.00 0.00 49 1000.8
20260504194811 51 314 10.0 20.0 0.00 0.00 0.00 47 1000.8
20260504194305 51 354 11.0 21.0 0.00 0.00 0.00 46 1000.8
20260504193759 51 328 9.0 21.0 0.00 0.00 0.00 48 1000.4
20260504193252 52 309 8.0 20.0 0.00 0.00 0.00 46 1000.6
20260504192747 52 338 10.0 19.0 0.00 0.00 0.00 47 1000.4
20260504192241 52 323 10.0 23.0 0.00 0.00 0.00 49 1000.2
20260504191737 52 344 8.0 23.0 0.00 0.00 0.00 47 1000.2
20260504191229 52 298 8.0 17.0 0.00 0.00 0.00 47 1000.1
20260504190723 52 30 10.0 25.0 0.00 0.00 0.00 48 999.9
20260504190448 52 326 12.0 27.0 0.00 0.00 0.00 50 999.8
20260504185711 52 309 11.0 27.0 0.00 0.00 0.00 48 999.8
20260504185204 52 349 7.0 24.0 0.00 0.00 0.00 46 999.5
20260504184658 52 332 6.0 19.0 0.00 0.00 0.00 47 999.6
20260504184424 52 346 9.0 25.0 0.00 0.00 0.00 48 999.6
20260504183647 52 333 11.0 25.0 0.00 0.00 0.00 51 999.6
20260504183412 52 342 9.0 24.0 0.00 0.00 0.00 50 999.5
20260504182635 53 313 7.0 19.0 0.00 0.00 0.00 48 999.5
20260504182129 53 307 10.0 22.0 0.00 0.00 0.00 47 999.3
20260504182124 52 308 10.0 22.0 0.00 0.00 0.00 53 999.3
20260504181117 52 330 10.0 27.0 0.00 0.00 0.00 51 999.3
20260504180841 53 338 10.0 27.0 0.00 0.00 0.00 49 999.4
20260504180105 53 349 7.0 17.0 0.00 0.00 0.00 49 999.1
20260504175559 54 8 5.0 14.0 0.00 0.00 0.00 49 999.0
20260504175053 54 279 7.0 22.0 0.00 0.00 0.00 51 999.2
20260504174547 53 317 8.0 22.0 0.00 0.00 0.00 49 999.0
20260504174040 53 305 7.0 19.0 0.00 0.00 0.00 51 998.9
20260504173535 53 302 7.0 24.0 0.00 0.00 0.00 51 998.9
20260504173029 53 334 9.0 28.0 0.00 0.00 0.00 51 998.9
20260504172522 53 345 10.0 29.0 0.00 0.00 0.00 50 998.7
20260504172017 53 300 9.0 29.0 0.00 0.00 0.00 49 998.6
20260504171511 54 319 7.0 21.0 0.00 0.00 0.00 49 998.5
20260504171005 55 15 5.0 21.0 0.00 0.00 0.00 47 998.6
20260504170459 54 300 6.0 14.0 0.00 0.00 0.00 50 998.3
20260504150826 55 1 6.0 18.0 0.00 0.00 0.00 57 996.7
20260504150325 54 323 5.0 18.0 0.00 0.00 0.00 57 996.7
20260504140304 53 216 4.0 13.0 0.00 0.00 0.00 57 996.2
20260504130217 54 319 5.0 16.0 0.00 0.00 0.00 55 995.3
20260504120218 54 304 3.0 9.0 0.00 0.00 0.00 63 994.3